Location: Buffign�court
(47.8126°N, 6.0176°E)
Time: 19:57:44
(UTC+00:00)

Cosmos 1867 - Pass Details

Date: 16 June 2021
Orbit: 773 x 802 km, 65.0° (Epoch: 23 July)

Event Time Altitude Azimuth Distance (km) Brightness Sun altitude
Rises 23:23:44 0° 317° (NW) 3,322 7.6 -18.7°
Reaches altitude 10° 23:26:20 10° 309° (NW) 2,387 6.6 -18.8°
Maximum altitude 23:31:17 36° 244° (WSW) 1,258 4.4 -18.8°
Enters shadow 23:32:52 30° 210° (SSW) 1,410 4.4 -18.8°
